This demonstration page uses our WeatherBlox Daily Observations layout. Learn more.

Left ArrowRight Arrow

41.86663, -103.66717

Hourly Observations for November 19, 2020

Temp ( °F °C ) Dew Point ( °F °C ) Humidity (%) Winds ( mph kmh ) Pressure ( in mb ) Visibility ( mi km ) Precip ( " mm )
12:53 am 00:53 Clear 52 11.1 36 2.2 55 55 WNW 14 22 29.77 1008 10 16 0.00 0.00
1:53 am 01:53 Clear 45 7.2 34 1.1 66 66 WNW 9 15 29.81 1009 10 16 0.00 0.00
2:53 am 02:53 Clear 46 7.8 34 1.1 63 63 W 9 15 29.80 1009 10 16 0.00 0.00
3:53 am 03:53 Clear 43 6.1 33 0.6 68 68 NW 3 6 29.84 1010 10 16 0.00 0.00
4:53 am 04:53 Clear 41 5 32 0 70 70 WNW 8 13 29.88 1012 10 16 0.00 0.00
5:53 am 05:53 Clear 38 3.3 30 -1.1 73 73 WNW 7 11 29.92 1013 10 16 0.00 0.00
6:53 am 06:53 Sunny 42 5.6 31 -0.6 65 65 WSW 9 15 29.94 1014 10 16 0.00 0.00
7:53 am 07:53 Sunny 46 7.8 32 0 58 58 W 10 17 29.95 1014 10 16 0.00 0.00
8:53 am 08:53 Sunny 53 11.7 33 0.6 47 47 W 13 20 29.96 1015 10 16 0.00 0.00
9:53 am 09:53 Sunny 58 14.4 32 0 38 38 WNW 23 37 29.96 1015 10 16 0.00 0.00
10:53 am 10:53 Sunny 61 16.1 28 -2.2 29 29 W 20 31 29.96 1014 10 16 0.00 0.00
11:53 am 11:53 Sunny 63 17.2 27 -2.8 26 26 WNW 22 35 29.93 1013 10 16 0.00 0.00
12:53 pm 12:53 Sunny 63 17.2 24 -4.4 23 23 W 28 44 29.91 1013 10 16 0.00 0.00
1:53 pm 13:53 Sunny 62 16.7 23 -5 22 22 WNW 35 56 29.95 1014 10 16 0.00 0.00
2:53 pm 14:53 Sunny 60 15.6 22 -5.6 23 23 WNW 30 48 29.98 1015 10 16 0.00 0.00
3:53 pm 15:53 Sunny 57 13.9 21 -6.1 25 25 WNW 28 44 30.03 1017 10 16 0.00 0.00
4:53 pm 16:53 Clear 54 12.2 20 -6.7 26 26 WNW 20 31 30.07 1018 10 16 0.00 0.00
5:53 pm 17:53 Clear 51 10.6 18 -7.8 27 27 WNW 14 22 30.13 1020 10 16 0.00 0.00
6:53 pm 18:53 Clear 46 7.8 17 -8.3 31 31 NW 9 15 30.16 1022 10 16 0.00 0.00
7:53 pm 19:53 Clear 39 3.9 15 -9.4 38 38 NE 6 9 30.22 1023 10 16 0.00 0.00
8:53 pm 20:53 Clear 37 2.8 15 -9.4 41 41 ENE 5 7 30.23 1024 10 16 0.00 0.00
9:53 pm 21:53 Mostly Cloudy 36 2.2 22 -5.6 57 57 Calm 30.24 1024 10 16 0.00 0.00
10:53 pm 22:53 Mostly Clear 31 -0.6 21 -6.1 67 67 VRB 3 6 30.26 1025 10 16 0.00 0.00
11:53 pm 23:53 Cloudy 31 -0.6 22 -5.6 69 69 ESE 5 7 30.27 1025 10 16 0.00 0.00

Powered by AerisWeather